Location: Angwan Shehu
(11.2514°N, 7.4613°E)
Time: 22:59:35
(UTC+00:00)

Vanguard 3 - Pass Details

Date: 30 July 2021
Orbit: 510 x 3260 km, 33.3° (Epoch: 18 September)

Event Time Altitude Azimuth Distance (km) Brightness Sun altitude
Rises 22:50:20 0° 305° (NW) 7,199 12.4 -58.3°
Reaches altitude 10° 22:55:30 10° 310° (NW) 6,193 11.9 -58.8°
Enters shadow 23:11:21 51° 354° (N) 3,403 10.1 -59.8°
